When you browse on this site, cookies collect data to enhance your experience and personalize the content and advertising you see.
Visit our Privacy Policy to learn more. By continuing to use the site, you agree to this use of cookies and data.
  • en Belgique
  • Liste des pays
  • À 7 jours
  • Température de l'eau
  • Carte satellitaire
  • Carte météo
  • Widgets météo
  • user-avatar
    Se connecter

    Météo par heure à Francistown

    Ce jour, 27 Mai, Lundi

    Heure Température Précipitation Vent Pression Humidité
    00:00 +14°C° 0 mm 2 m/s 680 mmHg 63%
    01:00 +13°C° 0 mm 2 m/s 679 mmHg 66%
    02:00 +13°C° 0 mm 2 m/s 679 mmHg 69%
    03:00 +12°C° 0 mm 2 m/s 679 mmHg 72%
    04:00 +12°C° 0 mm 2 m/s 679 mmHg 76%
    05:00 +10°C° 0 mm 2 m/s 679 mmHg 80%
    06:00 +12°C° 0 mm 2 m/s 679 mmHg 76%
    07:00 +13°C° 0 mm 2 m/s 680 mmHg 73%
    08:00 +13°C° 0 mm 3 m/s 680 mmHg 69%
    09:00 +16°C° 0 mm 3 m/s 680 mmHg 58%
    10:00 +19°C° 0 mm 4 m/s 681 mmHg 46%
    11:00 +21°C° 0 mm 5 m/s 681 mmHg 35%
    12:00 +22°C° 0 mm 4 m/s 681 mmHg 31%
    13:00 +23°C° 0 mm 4 m/s 680 mmHg 27%
    14:00 +25°C° 0 mm 4 m/s 680 mmHg 23%
    15:00 +25°C° 0 mm 4 m/s 679 mmHg 24%
    16:00 +23°C° 0 mm 4 m/s 679 mmHg 25%
    17:00 +22°C° 0 mm 4 m/s 679 mmHg 26%
    18:00 +21°C° 0 mm 4 m/s 679 mmHg 30%
    19:00 +19°C° 0 mm 4 m/s 679 mmHg 34%
    20:00 +17°C° 0 mm 4 m/s 679 mmHg 38%
    21:00 +16°C° 0 mm 3 m/s 679 mmHg 41%
    22:00 +14°C° 0 mm 3 m/s 679 mmHg 43%
    23:00 +14°C° 0 mm 3 m/s 679 mmHg 46%

    Demain, 28 Mai, Mardi

    Heure Température Précipitation Vent Pression Humidité
    00:00 +13°C° 0 mm 3 m/s 679 mmHg 49%
    01:00 +14°C° 0 mm 2 m/s 679 mmHg 53%
    02:00 +13°C° 0 mm 2 m/s 679 mmHg 56%
    03:00 +13°C° 0 mm 2 m/s 678 mmHg 58%
    04:00 +12°C° 0 mm 2 m/s 678 mmHg 61%
    05:00 +12°C° 0 mm 2 m/s 678 mmHg 64%
    06:00 +13°C° 0 mm 2 m/s 679 mmHg 62%
    07:00 +14°C° 0 mm 2 m/s 679 mmHg 61%
    08:00 +14°C° 0 mm 2 m/s 680 mmHg 59%
    09:00 +17°C° 0 mm 3 m/s 680 mmHg 49%
    10:00 +20°C° 0 mm 3 m/s 681 mmHg 40%
    11:00 +22°C° 0 mm 4 m/s 681 mmHg 30%
    12:00 +23°C° 0 mm 4 m/s 680 mmHg 27%
    13:00 +25°C° 0 mm 3 m/s 680 mmHg 25%
    14:00 +26°C° 0 mm 3 m/s 679 mmHg 22%
    15:00 +25°C° 0 mm 3 m/s 679 mmHg 23%
    16:00 +25°C° 0 mm 3 m/s 678 mmHg 25%
    17:00 +24°C° 0 mm 3 m/s 678 mmHg 26%
    18:00 +21°C° 0 mm 3 m/s 678 mmHg 30%
    19:00 +19°C° 0 mm 3 m/s 678 mmHg 35%
    20:00 +17°C° 0 mm 3 m/s 678 mmHg 40%
    21:00 +16°C° 0 mm 3 m/s 679 mmHg 44%
    22:00 +16°C° 0 mm 3 m/s 679 mmHg 48%
    23:00 +15°C° 0 mm 2 m/s 679 mmHg 51%

    Après-demain, 29 Mai, Mercredi

    Heure Température Précipitation Vent Pression Humidité
    00:00 +15°C° 0 mm 2 m/s 679 mmHg 54%
    01:00 +14°C° 0 mm 2 m/s 679 mmHg 56%
    02:00 +14°C° 0 mm 2 m/s 678 mmHg 59%
    03:00 +13°C° 0 mm 2 m/s 678 mmHg 61%
    04:00 +13°C° 0 mm 2 m/s 678 mmHg 63%
    05:00 +13°C° 0 mm 2 m/s 678 mmHg 65%
    06:00 +13°C° 0 mm 2 m/s 679 mmHg 63%
    07:00 +14°C° 0 mm 2 m/s 679 mmHg 60%
    08:00 +15°C° 0 mm 2 m/s 680 mmHg 58%
    09:00 +18°C° 0 mm 3 m/s 680 mmHg 48%
    10:00 +20°C° 0 mm 4 m/s 681 mmHg 39%
    11:00 +23°C° 0 mm 4 m/s 681 mmHg 29%
    12:00 +25°C° 0 mm 4 m/s 681 mmHg 27%
    13:00 +26°C° 0 mm 4 m/s 680 mmHg 24%
    14:00 +27°C° 0 mm 4 m/s 679 mmHg 22%
    15:00 +26°C° 0 mm 4 m/s 679 mmHg 24%
    16:00 +25°C° 0 mm 4 m/s 679 mmHg 25%
    17:00 +23°C° 0 mm 4 m/s 678 mmHg 27%
    18:00 +21°C° 0 mm 4 m/s 679 mmHg 32%
    19:00 +20°C° 0 mm 4 m/s 679 mmHg 37%
    20:00 +18°C° 0 mm 4 m/s 679 mmHg 42%
    21:00 +17°C° 0 mm 4 m/s 679 mmHg 45%
    22:00 +16°C° 0 mm 3 m/s 679 mmHg 48%
    23:00 +14°C° 0 mm 3 m/s 679 mmHg 50%

    30 Mai, Jeudi

    Heure Température Précipitation Vent Pression Humidité
    00:00 +14°C° 0 mm 3 m/s 679 mmHg 52%
    01:00 +13°C° 0 mm 3 m/s 679 mmHg 53%
    02:00 +13°C° 0 mm 3 m/s 678 mmHg 55%
    03:00 +12°C° 0 mm 3 m/s 678 mmHg 58%
    04:00 +12°C° 0 mm 3 m/s 678 mmHg 60%
    05:00 +11°C° 0 mm 3 m/s 678 mmHg 62%
    06:00 +12°C° 0 mm 3 m/s 679 mmHg 62%
    07:00 +13°C° 0 mm 4 m/s 680 mmHg 62%
    08:00 +14°C° 0 mm 4 m/s 680 mmHg 61%
    09:00 +17°C° 0 mm 4 m/s 681 mmHg 52%
    10:00 +20°C° 0 mm 5 m/s 681 mmHg 43%
    11:00 +23°C° 0 mm 5 m/s 681 mmHg 33%
    12:00 +25°C° 0 mm 4 m/s 681 mmHg 30%
    13:00 +26°C° 0 mm 4 m/s 680 mmHg 26%
    14:00 +27°C° 0 mm 4 m/s 679 mmHg 23%
    15:00 +26°C° 0 mm 4 m/s 679 mmHg 24%
    16:00 +25°C° 0 mm 4 m/s 678 mmHg 26%
    17:00 +25°C° 0 mm 4 m/s 678 mmHg 27%
    18:00 +22°C° 0 mm 4 m/s 678 mmHg 32%
    19:00 +20°C° 0 mm 4 m/s 678 mmHg 38%
    20:00 +18°C° 0 mm 3 m/s 678 mmHg 43%
    21:00 +17°C° 0 mm 3 m/s 678 mmHg 47%
    22:00 +16°C° 0 mm 3 m/s 678 mmHg 51%
    23:00 +14°C° 0 mm 3 m/s 678 mmHg 55%

    31 Mai, Vendredi

    Heure Température Précipitation Vent Pression Humidité
    00:00 +15°C° 0 mm 2 m/s 678 mmHg 57%
    01:00 +14°C° 0 mm 2 m/s 678 mmHg 60%
    02:00 +14°C° 0 mm 2 m/s 677 mmHg 63%
    03:00 +13°C° 0 mm 2 m/s 677 mmHg 64%
    04:00 +13°C° 0 mm 2 m/s 677 mmHg 65%
    05:00 +13°C° 0 mm 2 m/s 677 mmHg 67%
    06:00 +14°C° 0 mm 1 m/s 678 mmHg 61%
    07:00 +15°C° 0 mm 1 m/s 678 mmHg 56%
    08:00 +16°C° 0 mm 1 m/s 679 mmHg 51%
    09:00 +20°C° 0 mm 1 m/s 679 mmHg 43%
    10:00 +22°C° 0 mm 1 m/s 680 mmHg 35%
    11:00 +25°C° 0 mm 1 m/s 680 mmHg 26%
    12:00 +26°C° 0 mm 1 m/s 679 mmHg 24%
    13:00 +26°C° 0 mm 1 m/s 679 mmHg 22%
    14:00 +27°C° 0 mm 1 m/s 678 mmHg 20%
    15:00 +27°C° 0 mm 2 m/s 678 mmHg 21%
    16:00 +26°C° 0 mm 2 m/s 677 mmHg 22%
    17:00 +25°C° 0 mm 3 m/s 677 mmHg 23%
    18:00 +24°C° 0 mm 3 m/s 677 mmHg 25%
    19:00 +21°C° 0 mm 3 m/s 677 mmHg 28%
    20:00 +19°C° 0 mm 3 m/s 678 mmHg 30%
    21:00 +18°C° 0 mm 3 m/s 678 mmHg 32%
    22:00 +18°C° 0 mm 2 m/s 678 mmHg 33%
    23:00 +17°C° 0 mm 2 m/s 678 mmHg 34%

    1 Juin, Samedi

    Heure Température Précipitation Vent Pression Humidité
    00:00 +16°C° 0 mm 2 m/s 677 mmHg 35%
    01:00 +16°C° 0 mm 2 m/s 677 mmHg 36%
    02:00 +15°C° 0 mm 1 m/s 677 mmHg 38%
    03:00 +15°C° 0 mm 1 m/s 677 mmHg 38%
    04:00 +15°C° 0 mm 1 m/s 677 mmHg 39%
    05:00 +14°C° 0 mm 1 m/s 677 mmHg 40%
    06:00 +15°C° 0 mm 1 m/s 678 mmHg 38%
    07:00 +18°C° 0 mm 1 m/s 679 mmHg 37%
    08:00 +18°C° 0 mm 2 m/s 679 mmHg 35%
    09:00 +20°C° 0 mm 2 m/s 680 mmHg 31%
    10:00 +24°C° 0 mm 3 m/s 680 mmHg 27%
    11:00 +26°C° 0 mm 4 m/s 680 mmHg 23%
    12:00 +27°C° 0 mm 3 m/s 680 mmHg 21%
    13:00 +28°C° 0 mm 3 m/s 679 mmHg 19%
    14:00 +29°C° 0 mm 3 m/s 678 mmHg 17%
    15:00 +28°C° 0 mm 3 m/s 678 mmHg 19%
    16:00 +27°C° 0 mm 3 m/s 678 mmHg 20%
    17:00 +26°C° 0 mm 3 m/s 678 mmHg 21%
    18:00 +24°C° 0 mm 3 m/s 679 mmHg 24%
    19:00 +21°C° 0 mm 3 m/s 679 mmHg 27%
    20:00 +19°C° 0 mm 3 m/s 679 mmHg 30%
    21:00 +19°C° 0 mm 4 m/s 679 mmHg 32%
    22:00 +18°C° 0 mm 4 m/s 680 mmHg 33%
    23:00 +17°C° 0 mm 5 m/s 680 mmHg 35%
    Voir plus